Hourly Weather Bolshie Kabany

Today, 24 July, Saturday

Time Temperature Precipitation Wind Pressure Humidity
00:00 +17°C° 0 mm 3 mps 745 mmHg 62%
01:00 +16°C° 0 mm 3 mps 745 mmHg 67%
02:00 +14°C° 0 mm 3 mps 745 mmHg 71%
03:00 +13°C° 0 mm 3 mps 745 mmHg 76%
04:00 +14°C° 0 mm 3 mps 745 mmHg 77%
05:00 +14°C° 0 mm 3 mps 745 mmHg 78%
06:00 +15°C° 0 mm 4 mps 745 mmHg 79%
07:00 +17°C° 0 mm 4 mps 746 mmHg 73%
08:00 +18°C° 0 mm 4 mps 746 mmHg 68%
09:00 +19°C° 0 mm 4 mps 746 mmHg 64%
10:00 +20°C° 0.3 mm 4 mps 747 mmHg 64%
11:00 +20°C° 0.3 mm 4 mps 747 mmHg 65%
12:00 +20°C° 0.3 mm 5 mps 747 mmHg 65%
13:00 +20°C° 0.2 mm 5 mps 748 mmHg 62%
14:00 +20°C° 0.2 mm 4 mps 748 mmHg 60%
15:00 +20°C° 0 mm 4 mps 748 mmHg 56%
16:00 +19°C° 0 mm 4 mps 749 mmHg 57%
17:00 +19°C° 0 mm 4 mps 749 mmHg 57%
18:00 +19°C° 0 mm 4 mps 750 mmHg 58%
19:00 +17°C° 0 mm 3 mps 750 mmHg 61%
20:00 +14°C° 0 mm 3 mps 751 mmHg 64%
21:00 +14°C° 0 mm 2 mps 751 mmHg 67%
22:00 +13°C° 0 mm 2 mps 752 mmHg 66%
23:00 +12°C° 0 mm 2 mps 752 mmHg 66%

Tomorrow, 25 July, Sunday

Time Temperature Precipitation Wind Pressure Humidity
00:00 +12°C° 0 mm 2 mps 753 mmHg 66%
01:00 +10°C° 0 mm 2 mps 753 mmHg 63%
02:00 +9°C° 0 mm 2 mps 754 mmHg 61%
03:00 +9°C° 0 mm 2 mps 754 mmHg 59%
04:00 +10°C° 0 mm 2 mps 755 mmHg 57%
05:00 +12°C° 0 mm 2 mps 755 mmHg 56%
06:00 +12°C° 0 mm 2 mps 756 mmHg 54%
07:00 +14°C° 0 mm 2 mps 756 mmHg 50%
08:00 +16°C° 0 mm 2 mps 756 mmHg 45%
09:00 +18°C° 0 mm 2 mps 756 mmHg 41%
10:00 +18°C° 0 mm 2 mps 757 mmHg 39%
11:00 +19°C° 0 mm 2 mps 757 mmHg 37%
12:00 +20°C° 0 mm 2 mps 757 mmHg 35%
13:00 +20°C° 0 mm 2 mps 757 mmHg 35%
14:00 +21°C° 0 mm 3 mps 757 mmHg 35%
15:00 +21°C° 0 mm 3 mps 757 mmHg 35%
16:00 +21°C° 0 mm 2 mps 757 mmHg 40%
17:00 +22°C° 0 mm 1 mps 757 mmHg 45%
18:00 +22°C° 0 mm 1 mps 757 mmHg 49%
19:00 +20°C° 0 mm 1 mps 757 mmHg 51%
20:00 +18°C° 0 mm 1 mps 757 mmHg 53%
21:00 +15°C° 0 mm 1 mps 757 mmHg 55%
22:00 +16°C° 0 mm 1 mps 757 mmHg 54%
23:00 +16°C° 0 mm 2 mps 758 mmHg 53%

Day after tomorrow, 26 July, Monday

Time Temperature Precipitation Wind Pressure Humidity
00:00 +16°C° 0 mm 2 mps 758 mmHg 53%
01:00 +15°C° 0 mm 2 mps 758 mmHg 55%
02:00 +15°C° 0 mm 2 mps 758 mmHg 57%
03:00 +14°C° 0 mm 2 mps 758 mmHg 59%
04:00 +15°C° 0 mm 2 mps 758 mmHg 60%
05:00 +15°C° 0 mm 2 mps 758 mmHg 60%
06:00 +16°C° 0 mm 2 mps 758 mmHg 61%
07:00 +18°C° 0 mm 2 mps 758 mmHg 56%
08:00 +20°C° 0 mm 3 mps 758 mmHg 51%
09:00 +21°C° 0 mm 3 mps 758 mmHg 45%
10:00 +22°C° 0 mm 3 mps 758 mmHg 43%
11:00 +23°C° 0 mm 4 mps 758 mmHg 40%
12:00 +25°C° 0 mm 4 mps 758 mmHg 37%
13:00 +25°C° 0 mm 4 mps 758 mmHg 39%
14:00 +23°C° 0 mm 4 mps 757 mmHg 41%
15:00 +23°C° 0 mm 4 mps 757 mmHg 43%
16:00 +24°C° 0 mm 3 mps 757 mmHg 46%
17:00 +22°C° 0 mm 3 mps 757 mmHg 49%
18:00 +23°C° 0 mm 2 mps 757 mmHg 52%
19:00 +21°C° 0 mm 2 mps 757 mmHg 55%
20:00 +19°C° 0 mm 2 mps 757 mmHg 58%
21:00 +17°C° 0 mm 2 mps 756 mmHg 60%
22:00 +17°C° 0 mm 2 mps 756 mmHg 60%
23:00 +17°C° 0 mm 2 mps 756 mmHg 59%

27 July, Tuesday

Time Temperature Precipitation Wind Pressure Humidity
00:00 +17°C° 0 mm 2 mps 756 mmHg 58%
01:00 +17°C° 0 mm 3 mps 756 mmHg 60%
02:00 +16°C° 0 mm 3 mps 756 mmHg 62%
03:00 +14°C° 0 mm 3 mps 756 mmHg 64%
04:00 +16°C° 0 mm 3 mps 756 mmHg 65%
05:00 +17°C° 0 mm 3 mps 756 mmHg 65%
06:00 +17°C° 0 mm 3 mps 756 mmHg 66%
07:00 +19°C° 0 mm 3 mps 755 mmHg 61%
08:00 +21°C° 0 mm 4 mps 755 mmHg 56%
09:00 +22°C° 0 mm 5 mps 755 mmHg 52%
10:00 +22°C° 0 mm 5 mps 755 mmHg 53%
11:00 +22°C° 0 mm 5 mps 754 mmHg 55%
12:00 +22°C° 0 mm 5 mps 754 mmHg 56%
13:00 +22°C° 0.6 mm 5 mps 754 mmHg 57%
14:00 +22°C° 0.6 mm 5 mps 754 mmHg 59%
15:00 +22°C° 0.6 mm 6 mps 754 mmHg 60%
16:00 +22°C° 0.1 mm 5 mps 754 mmHg 59%
17:00 +21°C° 0.1 mm 4 mps 754 mmHg 58%
18:00 +21°C° 0.1 mm 4 mps 754 mmHg 58%
19:00 +19°C° 0 mm 3 mps 754 mmHg 64%
20:00 +17°C° 0 mm 2 mps 755 mmHg 70%
21:00 +15°C° 0 mm 1 mps 755 mmHg 75%
22:00 +14°C° 0 mm 1 mps 755 mmHg 78%
23:00 +13°C° 0 mm 1 mps 755 mmHg 80%

28 July, Wednesday

Time Temperature Precipitation Wind Pressure Humidity
00:00 +12°C° 0 mm 0 mps 755 mmHg 82%
01:00 +11°C° 0 mm 0 mps 755 mmHg 82%
02:00 +11°C° 0 mm 0 mps 755 mmHg 82%
03:00 +11°C° 0 mm 0 mps 755 mmHg 83%
04:00 +12°C° 0 mm 0 mps 755 mmHg 79%
05:00 +14°C° 0 mm 1 mps 755 mmHg 75%
06:00 +15°C° 0 mm 1 mps 755 mmHg 72%
07:00 +18°C° 0 mm 1 mps 755 mmHg 64%
08:00 +20°C° 0 mm 1 mps 755 mmHg 56%
09:00 +20°C° 0 mm 2 mps 755 mmHg 49%
10:00 +23°C° 0 mm 2 mps 755 mmHg 46%
11:00 +24°C° 0 mm 3 mps 754 mmHg 43%
12:00 +25°C° 0 mm 3 mps 754 mmHg 40%
13:00 +25°C° 0 mm 3 mps 753 mmHg 39%
14:00 +25°C° 0 mm 4 mps 753 mmHg 37%
15:00 +26°C° 0 mm 4 mps 753 mmHg 36%
16:00 +25°C° 0 mm 4 mps 752 mmHg 40%
17:00 +25°C° 0 mm 3 mps 752 mmHg 45%
18:00 +24°C° 0 mm 3 mps 751 mmHg 49%
19:00 +21°C° 0 mm 3 mps 751 mmHg 51%
20:00 +20°C° 0 mm 3 mps 751 mmHg 53%
21:00 +18°C° 0 mm 3 mps 750 mmHg 55%
22:00 +18°C° 0.1 mm 3 mps 750 mmHg 57%
23:00 +18°C° 0.1 mm 4 mps 750 mmHg 59%

29 July, Thursday

Time Temperature Precipitation Wind Pressure Humidity
00:00 +17°C° 0.1 mm 4 mps 750 mmHg 61%
01:00 +17°C° 0.2 mm 4 mps 749 mmHg 67%
02:00 +16°C° 0.2 mm 3 mps 749 mmHg 73%
03:00 +16°C° 0.2 mm 3 mps 749 mmHg 78%
04:00 +17°C° 0 mm 3 mps 749 mmHg 78%
05:00 +17°C° 0 mm 2 mps 749 mmHg 77%
06:00 +18°C° 0 mm 2 mps 749 mmHg 77%
07:00 +20°C° 0 mm 3 mps 749 mmHg 70%
08:00 +22°C° 0 mm 3 mps 749 mmHg 64%
09:00 +25°C° 0 mm 3 mps 749 mmHg 57%
10:00 +26°C° 0 mm 3 mps 749 mmHg 53%
11:00 +28°C° 0 mm 4 mps 749 mmHg 49%
12:00 +29°C° 0 mm 4 mps 749 mmHg 45%
13:00 +29°C° 0 mm 4 mps 748 mmHg 43%
14:00 +30°C° 0 mm 4 mps 748 mmHg 40%
15:00 +30°C° 0 mm 4 mps 748 mmHg 38%
16:00 +27°C° 0.4 mm 4 mps 748 mmHg 50%
17:00 +23°C° 0.4 mm 4 mps 748 mmHg 63%
18:00 +21°C° 0.4 mm 4 mps 748 mmHg 75%
19:00 +20°C° 0.2 mm 4 mps 748 mmHg 79%
20:00 +19°C° 0.2 mm 3 mps 749 mmHg 83%
21:00 +18°C° 0.2 mm 2 mps 749 mmHg 87%
22:00 +18°C° 0 mm 2 mps 749 mmHg 88%
23:00 +17°C° 0 mm 2 mps 749 mmHg 88%
Show more